Time,TemperatureF,DewpointF,PressureIn,WindDirection,WindDirectionDegrees,WindSpeedMPH,WindSpeedGustMPH,Humidity,HourlyPrecipIn,Conditions,Clouds,dailyrainin,SoftwareType,DateUTC
2013-11-07 00:01:00,46.6,22.3,29.88,North,-999,-999.0,-999.0,38,-99.99,,,-99.99,WSDL version 440,2013-11-07 06:01:00,
2013-11-07 00:06:00,46.6,22.0,29.88,North,-999,-999.0,-999.0,38,-99.99,,,-99.99,WSDL version 440,2013-11-07 06:06:00,
2013-11-07 00:11:00,46.6,21.8,29.88,North,-999,-999.0,-999.0,37,-99.99,,,-99.99,WSDL version 440,2013-11-07 06:11:00,
2013-11-07 00:16:00,46.5,22.1,29.85,North,-999,-999.0,-999.0,38,-99.99,,,-99.99,WSDL version 440,2013-11-07 06:16:00,
2013-11-07 00:21:00,46.6,22.5,29.85,North,-999,-999.0,-999.0,38,-99.99,,,-99.99,WSDL version 440,2013-11-07 06:21:00,
2013-11-07 00:26:00,46.6,23.0,29.85,North,-999,-999.0,-999.0,39,-99.99,,,-99.99,WSDL version 440,2013-11-07 06:26:00,
2013-11-07 00:36:00,46.6,22.4,29.88,North,-999,-999.0,-999.0,38,-99.99,,,-99.99,WSDL version 440,2013-11-07 06:36:00,
2013-11-07 00:41:00,46.6,22.5,29.88,North,-999,-999.0,-999.0,38,-99.99,,,-99.99,WSDL version 440,2013-11-07 06:41:00,
2013-11-07 00:46:00,46.6,22.3,29.88,North,-999,-999.0,-999.0,38,-99.99,,,-99.99,WSDL version 440,2013-11-07 06:46:00,
2013-11-07 00:51:00,46.6,22.4,29.88,North,-999,-999.0,-999.0,38,-99.99,,,-99.99,WSDL version 440,2013-11-07 06:51:00,
2013-11-07 00:56:00,46.6,21.8,29.88,North,-999,-999.0,-999.0,37,-99.99,,,-99.99,WSDL version 440,2013-11-07 06:56:00,
2013-11-07 01:01:00,46.6,21.7,29.88,North,-999,-999.0,-999.0,37,-99.99,,,-99.99,WSDL version 440,2013-11-07 07:01:00,
2013-11-07 01:06:00,46.5,21.6,29.88,North,-999,-999.0,-999.0,37,-99.99,,,-99.99,WSDL version 440,2013-11-07 07:06:00,
2013-11-07 01:11:00,46.4,21.8,29.88,North,-999,-999.0,-999.0,37,-99.99,,,-99.99,WSDL version 440,2013-11-07 07:11:00,
2013-11-07 01:16:00,46.4,21.6,29.88,North,-999,-999.0,-999.0,37,-99.99,,,-99.99,WSDL version 440,2013-11-07 07:16:00,
2013-11-07 01:21:00,46.4,21.8,29.88,North,-999,-999.0,-999.0,37,-99.99,,,-99.99,WSDL version 440,2013-11-07 07:21:00,
2013-11-07 01:26:00,46.4,21.9,29.88,North,-999,-999.0,-999.0,38,-99.99,,,-99.99,WSDL version 440,2013-11-07 07:26:00,
2013-11-07 01:31:00,46.3,21.7,29.88,North,-999,-999.0,-999.0,37,-99.99,,,-99.99,WSDL version 440,2013-11-07 07:31:00,
2013-11-07 01:36:00,46.2,22.0,29.88,North,-999,-999.0,-999.0,38,-99.99,,,-99.99,WSDL version 440,2013-11-07 07:36:00,
2013-11-07 01:41:00,46.0,21.7,29.88,North,-999,-999.0,-999.0,38,-99.99,,,-99.99,WSDL version 440,2013-11-07 07:41:00,
2013-11-07 01:46:00,45.8,21.5,29.88,North,-999,-999.0,-999.0,38,-99.99,,,-99.99,WSDL version 440,2013-11-07 07:46:00,
2013-11-07 01:51:00,45.6,20.9,29.88,North,-999,-999.0,-999.0,37,-99.99,,,-99.99,WSDL version 440,2013-11-07 07:51:00,
2013-11-07 01:56:00,45.3,20.3,29.88,North,-999,-999.0,-999.0,37,-99.99,,,-99.99,WSDL version 440,2013-11-07 07:56:00,
2013-11-07 02:01:00,45.1,20.4,29.88,North,-999,-999.0,-999.0,37,-99.99,,,-99.99,WSDL version 440,2013-11-07 08:01:00,
2013-11-07 02:06:00,44.9,20.2,29.88,North,-999,-999.0,-999.0,37,-99.99,,,-99.99,WSDL version 440,2013-11-07 08:06:00,
2013-11-07 02:11:00,44.8,20.1,29.88,North,-999,-999.0,-999.0,37,-99.99,,,-99.99,WSDL version 440,2013-11-07 08:11:00,
2013-11-07 02:16:00,44.7,20.0,29.91,North,-999,-999.0,-999.0,37,-99.99,,,-99.99,WSDL version 440,2013-11-07 08:16:00,
2013-11-07 02:21:00,44.6,20.4,29.91,North,-999,-999.0,-999.0,38,-99.99,,,-99.99,WSDL version 440,2013-11-07 08:21:00,
2013-11-07 02:26:00,44.4,20.4,29.91,North,-999,-999.0,-999.0,38,-99.99,,,-99.99,WSDL version 440,2013-11-07 08:26:00,
2013-11-07 02:31:00,44.2,20.2,29.88,North,-999,-999.0,-999.0,38,-99.99,,,-99.99,WSDL version 440,2013-11-07 08:31:00,
2013-11-07 02:36:00,44.2,20.2,29.88,North,-999,-999.0,-999.0,38,-99.99,,,-99.99,WSDL version 440,2013-11-07 08:36:00,
2013-11-07 02:41:00,43.9,20.0,29.88,North,-999,-999.0,-999.0,38,-99.99,,,-99.99,WSDL version 440,2013-11-07 08:41:00,
2013-11-07 02:46:00,43.7,19.8,29.88,North,-999,-999.0,-999.0,38,-99.99,,,-99.99,WSDL version 440,2013-11-07 08:46:00,
2013-11-07 02:51:00,43.6,19.7,29.88,North,-999,-999.0,-999.0,38,-99.99,,,-99.99,WSDL version 440,2013-11-07 08:51:00,
2013-11-07 02:56:00,43.5,19.6,29.88,North,-999,-999.0,-999.0,38,-99.99,,,-99.99,WSDL version 440,2013-11-07 08:56:00,
2013-11-07 03:01:00,43.3,19.4,29.88,North,-999,-999.0,-999.0,38,-99.99,,,-99.99,WSDL version 440,2013-11-07 09:01:00,
2013-11-07 03:06:00,43.3,19.4,29.88,North,-999,-999.0,-999.0,38,-99.99,,,-99.99,WSDL version 440,2013-11-07 09:06:00,
2013-11-07 03:11:00,43.2,19.5,29.88,North,-999,-999.0,-999.0,38,-99.99,,,-99.99,WSDL version 440,2013-11-07 09:11:00,
2013-11-07 03:16:00,43.0,19.7,29.88,North,-999,-999.0,-999.0,39,-99.99,,,-99.99,WSDL version 440,2013-11-07 09:16:00,
2013-11-07 03:21:00,43.0,19.7,29.88,North,-999,-999.0,-999.0,39,-99.99,,,-99.99,WSDL version 440,2013-11-07 09:21:00,
2013-11-07 03:26:00,42.8,19.6,29.88,North,-999,-999.0,-999.0,39,-99.99,,,-99.99,WSDL version 440,2013-11-07 09:26:00,
2013-11-07 03:31:00,42.7,19.5,29.88,North,-999,-999.0,-999.0,39,-99.99,,,-99.99,WSDL version 440,2013-11-07 09:31:00,
2013-11-07 03:36:00,42.6,19.4,29.88,North,-999,-999.0,-999.0,39,-99.99,,,-99.99,WSDL version 440,2013-11-07 09:36:00,
2013-11-07 03:41:00,42.4,19.5,29.88,North,-999,-999.0,-999.0,39,-99.99,,,-99.99,WSDL version 440,2013-11-07 09:41:00,
2013-11-07 03:46:00,42.4,19.8,29.91,North,-999,-999.0,-999.0,40,-99.99,,,-99.99,WSDL version 440,2013-11-07 09:46:00,
2013-11-07 03:51:00,42.3,19.7,29.91,North,-999,-999.0,-999.0,40,-99.99,,,-99.99,WSDL version 440,2013-11-07 09:51:00,
2013-11-07 03:56:00,42.3,19.7,29.91,North,-999,-999.0,-999.0,40,-99.99,,,-99.99,WSDL version 440,2013-11-07 09:56:00,
2013-11-07 04:01:00,42.3,19.7,29.88,North,-999,-999.0,-999.0,40,-99.99,,,-99.99,WSDL version 440,2013-11-07 10:01:00,
2013-11-07 04:06:00,42.1,19.5,29.88,North,-999,-999.0,-999.0,40,-99.99,,,-99.99,WSDL version 440,2013-11-07 10:06:00,
2013-11-07 04:11:00,42.1,19.5,29.88,North,-999,-999.0,-999.0,40,-99.99,,,-99.99,WSDL version 440,2013-11-07 10:11:00,
2013-11-07 04:16:00,42.1,19.5,29.91,North,-999,-999.0,-999.0,40,-99.99,,,-99.99,WSDL version 440,2013-11-07 10:16:00,
2013-11-07 04:21:00,42.2,19.6,29.91,North,-999,-999.0,-999.0,40,-99.99,,,-99.99,WSDL version 440,2013-11-07 10:21:00,
2013-11-07 04:26:00,42.0,19.4,29.91,North,-999,-999.0,-999.0,40,-99.99,,,-99.99,WSDL version 440,2013-11-07 10:26:00,
2013-11-07 04:31:00,41.9,19.3,29.91,North,-999,-999.0,-999.0,40,-99.99,,,-99.99,WSDL version 440,2013-11-07 10:31:00,
2013-11-07 04:36:00,41.8,19.3,29.91,North,-999,-999.0,-999.0,40,-99.99,,,-99.99,WSDL version 440,2013-11-07 10:36:00,
2013-11-07 04:41:00,41.7,19.2,29.91,North,-999,-999.0,-999.0,40,-99.99,,,-99.99,WSDL version 440,2013-11-07 10:41:00,
2013-11-07 04:46:00,41.7,19.2,29.91,North,-999,-999.0,-999.0,40,-99.99,,,-99.99,WSDL version 440,2013-11-07 10:46:00,
2013-11-07 04:51:00,41.7,19.2,29.91,North,-999,-999.0,-999.0,40,-99.99,,,-99.99,WSDL version 440,2013-11-07 10:51:00,
2013-11-07 04:56:00,41.6,19.1,29.91,North,-999,-999.0,-999.0,40,-99.99,,,-99.99,WSDL version 440,2013-11-07 10:56:00,
2013-11-07 05:01:00,41.5,19.0,29.91,North,-999,-999.0,-999.0,40,-99.99,,,-99.99,WSDL version 440,2013-11-07 11:01:00,
2013-11-07 05:06:00,41.4,18.9,29.91,North,-999,-999.0,-999.0,40,-99.99,,,-99.99,WSDL version 440,2013-11-07 11:06:00,
2013-11-07 05:11:00,41.3,18.8,29.91,North,-999,-999.0,-999.0,40,-99.99,,,-99.99,WSDL version 440,2013-11-07 11:11:00,
2013-11-07 05:16:00,41.2,18.7,29.91,North,-999,-999.0,-999.0,40,-99.99,,,-99.99,WSDL version 440,2013-11-07 11:16:00,
2013-11-07 05:21:00,41.2,18.7,29.91,North,-999,-999.0,-999.0,40,-99.99,,,-99.99,WSDL version 440,2013-11-07 11:21:00,
2013-11-07 05:26:00,41.0,18.5,29.91,North,-999,-999.0,-999.0,40,-99.99,,,-99.99,WSDL version 440,2013-11-07 11:26:00,
2013-11-07 05:31:00,41.0,18.5,29.94,North,-999,-999.0,-999.0,40,-99.99,,,-99.99,WSDL version 440,2013-11-07 11:31:00,
2013-11-07 05:36:00,40.9,18.9,29.94,North,-999,-999.0,-999.0,41,-99.99,,,-99.99,WSDL version 440,2013-11-07 11:36:00,
2013-11-07 05:41:00,40.7,18.9,29.94,North,-999,-999.0,-999.0,41,-99.99,,,-99.99,WSDL version 440,2013-11-07 11:41:00,
2013-11-07 05:46:00,40.6,18.8,29.94,North,-999,-999.0,-999.0,41,-99.99,,,-99.99,WSDL version 440,2013-11-07 11:46:00,
2013-11-07 05:51:00,40.6,18.8,29.94,North,-999,-999.0,-999.0,41,-99.99,,,-99.99,WSDL version 440,2013-11-07 11:51:00,
2013-11-07 05:56:00,40.8,18.9,29.94,North,-999,-999.0,-999.0,41,-99.99,,,-99.99,WSDL version 440,2013-11-07 11:56:00,
2013-11-07 06:01:00,40.6,18.8,29.94,North,-999,-999.0,-999.0,41,-99.99,,,-99.99,WSDL version 440,2013-11-07 12:01:00,
2013-11-07 06:06:00,40.6,18.8,29.94,North,-999,-999.0,-999.0,41,-99.99,,,-99.99,WSDL version 440,2013-11-07 12:06:00,
2013-11-07 06:11:00,40.6,18.8,29.94,North,-999,-999.0,-999.0,41,-99.99,,,-99.99,WSDL version 440,2013-11-07 12:11:00,
2013-11-07 06:16:00,40.6,18.8,29.97,North,-999,-999.0,-999.0,41,-99.99,,,-99.99,WSDL version 440,2013-11-07 12:16:00,
2013-11-07 06:21:00,40.6,18.8,29.97,North,-999,-999.0,-999.0,41,-99.99,,,-99.99,WSDL version 440,2013-11-07 12:21:00,
2013-11-07 06:26:00,40.6,18.7,29.97,North,-999,-999.0,-999.0,41,-99.99,,,-99.99,WSDL version 440,2013-11-07 12:26:00,
2013-11-07 06:31:00,40.6,18.8,29.97,North,-999,-999.0,-999.0,41,-99.99,,,-99.99,WSDL version 440,2013-11-07 12:31:00,
2013-11-07 06:36:00,40.6,18.7,29.97,North,-999,-999.0,-999.0,41,-99.99,,,-99.99,WSDL version 440,2013-11-07 12:36:00,
2013-11-07 06:41:00,40.4,18.5,29.97,North,-999,-999.0,-999.0,41,-99.99,,,-99.99,WSDL version 440,2013-11-07 12:41:00,
2013-11-07 06:46:00,40.2,18.9,29.97,North,-999,-999.0,-999.0,42,-99.99,,,-99.99,WSDL version 440,2013-11-07 12:46:00,
2013-11-07 06:51:00,40.1,19.1,29.97,North,-999,-999.0,-999.0,43,-99.99,,,-99.99,WSDL version 440,2013-11-07 12:51:00,
2013-11-07 06:56:00,39.9,19.2,29.97,North,-999,-999.0,-999.0,43,-99.99,,,-99.99,WSDL version 440,2013-11-07 12:56:00,
2013-11-07 07:01:00,39.8,19.1,29.97,North,-999,-999.0,-999.0,43,-99.99,,,-99.99,WSDL version 440,2013-11-07 13:01:00,
2013-11-07 07:06:00,39.7,19.1,29.97,North,-999,-999.0,-999.0,43,-99.99,,,-99.99,WSDL version 440,2013-11-07 13:06:00,
2013-11-07 07:11:00,39.7,19.5,29.97,North,-999,-999.0,-999.0,44,-99.99,,,-99.99,WSDL version 440,2013-11-07 13:11:00,
2013-11-07 07:16:00,39.7,19.6,29.97,North,-999,-999.0,-999.0,44,-99.99,,,-99.99,WSDL version 440,2013-11-07 13:16:00,
2013-11-07 07:21:00,39.8,19.7,29.97,North,-999,-999.0,-999.0,44,-99.99,,,-99.99,WSDL version 440,2013-11-07 13:21:00,
2013-11-07 07:26:00,39.9,19.8,29.97,North,-999,-999.0,-999.0,44,-99.99,,,-99.99,WSDL version 440,2013-11-07 13:26:00,
2013-11-07 07:31:00,40.0,19.9,29.97,North,-999,-999.0,-999.0,44,-99.99,,,-99.99,WSDL version 440,2013-11-07 13:31:00,
2013-11-07 07:36:00,40.2,20.3,29.97,North,-999,-999.0,-999.0,44,-99.99,,,-99.99,WSDL version 440,2013-11-07 13:36:00,
2013-11-07 07:41:00,40.3,20.5,29.97,North,-999,-999.0,-999.0,45,-99.99,,,-99.99,WSDL version 440,2013-11-07 13:41:00,
2013-11-07 07:46:00,40.5,20.1,30.00,North,-999,-999.0,-999.0,44,-99.99,,,-99.99,WSDL version 440,2013-11-07 13:46:00,
2013-11-07 07:51:00,40.6,19.9,30.00,North,-999,-999.0,-999.0,43,-99.99,,,-99.99,WSDL version 440,2013-11-07 13:51:00,
2013-11-07 07:56:00,40.8,19.5,30.00,North,-999,-999.0,-999.0,42,-99.99,,,-99.99,WSDL version 440,2013-11-07 13:56:00,
2013-11-07 08:01:00,41.0,19.7,29.97,North,-999,-999.0,-999.0,42,-99.99,,,-99.99,WSDL version 440,2013-11-07 14:01:00,
2013-11-07 08:06:00,41.2,19.5,29.97,North,-999,-999.0,-999.0,41,-99.99,,,-99.99,WSDL version 440,2013-11-07 14:06:00,
2013-11-07 08:11:00,41.4,19.3,29.97,North,-999,-999.0,-999.0,41,-99.99,,,-99.99,WSDL version 440,2013-11-07 14:11:00,
2013-11-07 08:16:00,41.7,19.5,29.97,North,-999,-999.0,-999.0,41,-99.99,,,-99.99,WSDL version 440,2013-11-07 14:16:00,
2013-11-07 08:21:00,42.0,19.8,29.97,North,-999,-999.0,-999.0,41,-99.99,,,-99.99,WSDL version 440,2013-11-07 14:21:00,
2013-11-07 08:26:00,42.2,19.6,29.97,North,-999,-999.0,-999.0,40,-99.99,,,-99.99,WSDL version 440,2013-11-07 14:26:00,
2013-11-07 08:31:00,42.4,19.5,29.97,North,-999,-999.0,-999.0,40,-99.99,,,-99.99,WSDL version 440,2013-11-07 14:31:00,
2013-11-07 08:36:00,42.7,19.5,29.97,North,-999,-999.0,-999.0,39,-99.99,,,-99.99,WSDL version 440,2013-11-07 14:36:00,
2013-11-07 08:41:00,42.9,19.2,29.97,North,-999,-999.0,-999.0,38,-99.99,,,-99.99,WSDL version 440,2013-11-07 14:41:00,
2013-11-07 08:46:00,43.2,19.3,29.97,North,-999,-999.0,-999.0,38,-99.99,,,-99.99,WSDL version 440,2013-11-07 14:46:00,
2013-11-07 08:51:00,43.4,19.5,29.97,North,-999,-999.0,-999.0,38,-99.99,,,-99.99,WSDL version 440,2013-11-07 14:51:00,
2013-11-07 08:56:00,43.6,19.7,29.97,North,-999,-999.0,-999.0,38,-99.99,,,-99.99,WSDL version 440,2013-11-07 14:56:00,
2013-11-07 09:01:00,43.9,20.0,29.97,North,-999,-999.0,-999.0,38,-99.99,,,-99.99,WSDL version 440,2013-11-07 15:01:00,
2013-11-07 09:06:00,44.2,20.2,29.97,North,-999,-999.0,-999.0,38,-99.99,,,-99.99,WSDL version 440,2013-11-07 15:06:00,
2013-11-07 09:11:00,44.4,20.3,29.97,North,-999,-999.0,-999.0,38,-99.99,,,-99.99,WSDL version 440,2013-11-07 15:11:00,
2013-11-07 09:16:00,44.6,18.7,30.00,North,-999,-999.0,-999.0,35,-99.99,,,-99.99,WSDL version 440,2013-11-07 15:16:00,
2013-11-07 09:21:00,44.8,18.2,30.00,North,-999,-999.0,-999.0,34,-99.99,,,-99.99,WSDL version 440,2013-11-07 15:21:00,
2013-11-07 09:26:00,45.2,16.6,30.00,North,-999,-999.0,-999.0,31,-99.99,,,-99.99,WSDL version 440,2013-11-07 15:26:00,
2013-11-07 09:31:00,45.7,16.5,29.97,North,-999,-999.0,-999.0,31,-99.99,,,-99.99,WSDL version 440,2013-11-07 15:31:00,
2013-11-07 09:36:00,46.1,16.2,29.97,North,-999,-999.0,-999.0,30,-99.99,,,-99.99,WSDL version 440,2013-11-07 15:36:00,
2013-11-07 09:41:00,46.5,16.0,29.97,North,-999,-999.0,-999.0,29,-99.99,,,-99.99,WSDL version 440,2013-11-07 15:41:00,
2013-11-07 09:46:00,46.8,16.2,29.97,North,-999,-999.0,-999.0,29,-99.99,,,-99.99,WSDL version 440,2013-11-07 15:46:00,
2013-11-07 09:51:00,46.9,15.5,29.97,North,-999,-999.0,-999.0,28,-99.99,,,-99.99,WSDL version 440,2013-11-07 15:51:00,
2013-11-07 09:56:00,47.2,15.7,29.97,North,-999,-999.0,-999.0,28,-99.99,,,-99.99,WSDL version 440,2013-11-07 15:56:00,
2013-11-07 10:01:00,47.4,15.6,30.00,North,-999,-999.0,-999.0,28,-99.99,,,-99.99,WSDL version 440,2013-11-07 16:01:00,
2013-11-07 10:06:00,47.6,15.4,30.00,North,-999,-999.0,-999.0,27,-99.99,,,-99.99,WSDL version 440,2013-11-07 16:06:00,
2013-11-07 10:11:00,47.7,16.2,30.00,North,-999,-999.0,-999.0,28,-99.99,,,-99.99,WSDL version 440,2013-11-07 16:11:00,
2013-11-07 10:16:00,47.7,15.9,30.00,North,-999,-999.0,-999.0,28,-99.99,,,-99.99,WSDL version 440,2013-11-07 16:16:00,
2013-11-07 10:21:00,48.0,15.6,30.00,North,-999,-999.0,-999.0,27,-99.99,,,-99.99,WSDL version 440,2013-11-07 16:21:00,
2013-11-07 10:26:00,48.2,15.8,30.00,North,-999,-999.0,-999.0,27,-99.99,,,-99.99,WSDL version 440,2013-11-07 16:26:00,
2013-11-07 10:31:00,48.1,15.7,30.00,North,-999,-999.0,-999.0,27,-99.99,,,-99.99,WSDL version 440,2013-11-07 16:31:00,
2013-11-07 10:36:00,48.2,15.8,30.00,North,-999,-999.0,-999.0,27,-99.99,,,-99.99,WSDL version 440,2013-11-07 16:36:00,
2013-11-07 10:41:00,48.2,15.1,30.00,North,-999,-999.0,-999.0,26,-99.99,,,-99.99,WSDL version 440,2013-11-07 16:41:00,
2013-11-07 10:46:00,48.7,15.0,30.00,North,-999,-999.0,-999.0,26,-99.99,,,-99.99,WSDL version 440,2013-11-07 16:46:00,
2013-11-07 10:51:00,48.8,13.6,30.00,North,-999,-999.0,-999.0,24,-99.99,,,-99.99,WSDL version 440,2013-11-07 16:51:00,
2013-11-07 10:56:00,48.8,13.6,30.00,North,-999,-999.0,-999.0,24,-99.99,,,-99.99,WSDL version 440,2013-11-07 16:56:00,
2013-11-07 11:01:00,48.9,14.0,30.00,North,-999,-999.0,-999.0,24,-99.99,,,-99.99,WSDL version 440,2013-11-07 17:01:00,
2013-11-07 11:06:00,49.2,13.9,30.00,North,-999,-999.0,-999.0,24,-99.99,,,-99.99,WSDL version 440,2013-11-07 17:06:00,
2013-11-07 11:11:00,49.0,14.3,30.00,North,-999,-999.0,-999.0,25,-99.99,,,-99.99,WSDL version 440,2013-11-07 17:11:00,
2013-11-07 11:16:00,49.2,13.9,30.00,North,-999,-999.0,-999.0,24,-99.99,,,-99.99,WSDL version 440,2013-11-07 17:16:00,
2013-11-07 11:21:00,49.4,14.8,30.00,North,-999,-999.0,-999.0,25,-99.99,,,-99.99,WSDL version 440,2013-11-07 17:21:00,
2013-11-07 11:26:00,49.2,15.5,30.00,North,-999,-999.0,-999.0,26,-99.99,,,-99.99,WSDL version 440,2013-11-07 17:26:00,
2013-11-07 11:31:00,49.5,14.2,29.97,North,-999,-999.0,-999.0,24,-99.99,,,-99.99,WSDL version 440,2013-11-07 17:31:00,
2013-11-07 11:36:00,49.7,14.4,29.97,North,-999,-999.0,-999.0,24,-99.99,,,-99.99,WSDL version 440,2013-11-07 17:36:00,
2013-11-07 11:41:00,50.1,14.7,29.97,North,-999,-999.0,-999.0,24,-99.99,,,-99.99,WSDL version 440,2013-11-07 17:41:00,
2013-11-07 11:46:00,50.4,13.1,29.97,North,-999,-999.0,-999.0,22,-99.99,,,-99.99,WSDL version 440,2013-11-07 17:46:00,
2013-11-07 11:51:00,50.5,12.6,29.97,North,-999,-999.0,-999.0,22,-99.99,,,-99.99,WSDL version 440,2013-11-07 17:51:00,
2013-11-07 11:56:00,50.5,15.1,29.97,North,-999,-999.0,-999.0,24,-99.99,,,-99.99,WSDL version 440,2013-11-07 17:56:00,
2013-11-07 12:01:00,50.3,14.9,29.97,North,-999,-999.0,-999.0,24,-99.99,,,-99.99,WSDL version 440,2013-11-07 18:01:00,
2013-11-07 12:06:00,50.3,14.9,29.97,North,-999,-999.0,-999.0,24,-99.99,,,-99.99,WSDL version 440,2013-11-07 18:06:00,
2013-11-07 12:11:00,50.5,15.1,29.97,North,-999,-999.0,-999.0,24,-99.99,,,-99.99,WSDL version 440,2013-11-07 18:11:00,
2013-11-07 12:16:00,50.6,15.1,29.97,North,-999,-999.0,-999.0,24,-99.99,,,-99.99,WSDL version 440,2013-11-07 18:16:00,
2013-11-07 12:21:00,50.8,15.3,29.97,North,-999,-999.0,-999.0,24,-99.99,,,-99.99,WSDL version 440,2013-11-07 18:21:00,
2013-11-07 12:26:00,51.1,15.6,29.97,North,-999,-999.0,-999.0,24,-99.99,,,-99.99,WSDL version 440,2013-11-07 18:26:00,
2013-11-07 12:31:00,51.1,14.9,29.97,North,-999,-999.0,-999.0,23,-99.99,,,-99.99,WSDL version 440,2013-11-07 18:31:00,
2013-11-07 12:36:00,51.1,15.0,29.97,North,-999,-999.0,-999.0,24,-99.99,,,-99.99,WSDL version 440,2013-11-07 18:36:00,
2013-11-07 12:41:00,51.1,13.5,29.97,North,-999,-999.0,-999.0,22,-99.99,,,-99.99,WSDL version 440,2013-11-07 18:41:00,
2013-11-07 12:46:00,51.1,15.5,29.97,North,-999,-999.0,-999.0,24,-99.99,,,-99.99,WSDL version 440,2013-11-07 18:46:00,
2013-11-07 12:51:00,51.1,14.3,29.97,North,-999,-999.0,-999.0,23,-99.99,,,-99.99,WSDL version 440,2013-11-07 18:51:00,
2013-11-07 12:56:00,51.1,15.0,29.97,North,-999,-999.0,-999.0,24,-99.99,,,-99.99,WSDL version 440,2013-11-07 18:56:00,
2013-11-07 13:01:00,51.3,15.7,29.97,North,-999,-999.0,-999.0,24,-99.99,,,-99.99,WSDL version 440,2013-11-07 19:01:00,
2013-11-07 13:06:00,51.4,15.9,29.97,North,-999,-999.0,-999.0,24,-99.99,,,-99.99,WSDL version 440,2013-11-07 19:06:00,
2013-11-07 13:11:00,51.4,14.8,29.97,North,-999,-999.0,-999.0,23,-99.99,,,-99.99,WSDL version 440,2013-11-07 19:11:00,
2013-11-07 13:16:00,51.6,13.6,29.94,North,-999,-999.0,-999.0,22,-99.99,,,-99.99,WSDL version 440,2013-11-07 19:16:00,
2013-11-07 13:21:00,51.6,14.0,29.94,North,-999,-999.0,-999.0,22,-99.99,,,-99.99,WSDL version 440,2013-11-07 19:21:00,
2013-11-07 13:26:00,51.8,13.1,29.94,North,-999,-999.0,-999.0,21,-99.99,,,-99.99,WSDL version 440,2013-11-07 19:26:00,
2013-11-07 13:31:00,52.0,13.3,29.94,North,-999,-999.0,-999.0,21,-99.99,,,-99.99,WSDL version 440,2013-11-07 19:31:00,
2013-11-07 13:36:00,52.0,13.3,29.94,North,-999,-999.0,-999.0,21,-99.99,,,-99.99,WSDL version 440,2013-11-07 19:36:00,
2013-11-07 13:41:00,52.1,13.4,29.94,North,-999,-999.0,-999.0,21,-99.99,,,-99.99,WSDL version 440,2013-11-07 19:41:00,
2013-11-07 13:46:00,52.2,13.4,29.94,North,-999,-999.0,-999.0,21,-99.99,,,-99.99,WSDL version 440,2013-11-07 19:46:00,
2013-11-07 13:51:00,52.4,13.6,29.94,North,-999,-999.0,-999.0,21,-99.99,,,-99.99,WSDL version 440,2013-11-07 19:51:00,
2013-11-07 13:56:00,52.5,13.7,29.94,North,-999,-999.0,-999.0,21,-99.99,,,-99.99,WSDL version 440,2013-11-07 19:56:00,
2013-11-07 14:01:00,52.5,13.7,29.94,North,-999,-999.0,-999.0,21,-99.99,,,-99.99,WSDL version 440,2013-11-07 20:01:00,
2013-11-07 14:06:00,52.5,13.7,29.94,North,-999,-999.0,-999.0,21,-99.99,,,-99.99,WSDL version 440,2013-11-07 20:06:00,
2013-11-07 14:11:00,52.7,13.8,29.94,North,-999,-999.0,-999.0,21,-99.99,,,-99.99,WSDL version 440,2013-11-07 20:11:00,
2013-11-07 14:21:00,52.5,13.7,29.94,North,-999,-999.0,-999.0,21,-99.99,,,-99.99,WSDL version 440,2013-11-07 20:21:00,
2013-11-07 14:26:00,52.7,13.9,29.94,North,-999,-999.0,-999.0,21,-99.99,,,-99.99,WSDL version 440,2013-11-07 20:26:00,
2013-11-07 14:31:00,52.7,13.9,29.91,North,-999,-999.0,-999.0,21,-99.99,,,-99.99,WSDL version 440,2013-11-07 20:31:00,
2013-11-07 14:36:00,52.6,13.8,29.91,North,-999,-999.0,-999.0,21,-99.99,,,-99.99,WSDL version 440,2013-11-07 20:36:00,
2013-11-07 14:41:00,52.7,13.9,29.91,North,-999,-999.0,-999.0,21,-99.99,,,-99.99,WSDL version 440,2013-11-07 20:41:00,
2013-11-07 14:46:00,52.8,14.0,29.91,North,-999,-999.0,-999.0,21,-99.99,,,-99.99,WSDL version 440,2013-11-07 20:46:00,
2013-11-07 14:51:00,52.9,14.0,29.91,North,-999,-999.0,-999.0,21,-99.99,,,-99.99,WSDL version 440,2013-11-07 20:51:00,
2013-11-07 14:56:00,52.9,14.0,29.91,North,-999,-999.0,-999.0,21,-99.99,,,-99.99,WSDL version 440,2013-11-07 20:56:00,
2013-11-07 15:01:00,53.0,14.1,29.91,North,-999,-999.0,-999.0,21,-99.99,,,-99.99,WSDL version 440,2013-11-07 21:01:00,
2013-11-07 15:06:00,52.9,14.0,29.91,North,-999,-999.0,-999.0,21,-99.99,,,-99.99,WSDL version 440,2013-11-07 21:06:00,
2013-11-07 15:11:00,52.8,14.0,29.91,North,-999,-999.0,-999.0,21,-99.99,,,-99.99,WSDL version 440,2013-11-07 21:11:00,
2013-11-07 15:16:00,52.7,13.9,29.91,North,-999,-999.0,-999.0,21,-99.99,,,-99.99,WSDL version 440,2013-11-07 21:16:00,
2013-11-07 15:21:00,52.9,14.0,29.91,North,-999,-999.0,-999.0,21,-99.99,,,-99.99,WSDL version 440,2013-11-07 21:21:00,
2013-11-07 15:26:00,52.8,13.9,29.91,North,-999,-999.0,-999.0,21,-99.99,,,-99.99,WSDL version 440,2013-11-07 21:26:00,
2013-11-07 15:31:00,52.8,14.0,29.91,North,-999,-999.0,-999.0,21,-99.99,,,-99.99,WSDL version 440,2013-11-07 21:31:00,
2013-11-07 15:36:00,52.7,13.9,29.91,North,-999,-999.0,-999.0,21,-99.99,,,-99.99,WSDL version 440,2013-11-07 21:36:00,
2013-11-07 15:41:00,52.5,13.7,29.91,North,-999,-999.0,-999.0,21,-99.99,,,-99.99,WSDL version 440,2013-11-07 21:41:00,
2013-11-07 15:46:00,52.5,13.7,29.91,North,-999,-999.0,-999.0,21,-99.99,,,-99.99,WSDL version 440,2013-11-07 21:46:00,
2013-11-07 15:51:00,52.5,13.7,29.91,North,-999,-999.0,-999.0,21,-99.99,,,-99.99,WSDL version 440,2013-11-07 21:51:00,
2013-11-07 15:56:00,52.3,13.6,29.91,North,-999,-999.0,-999.0,21,-99.99,,,-99.99,WSDL version 440,2013-11-07 21:56:00,
2013-11-07 16:01:00,52.3,13.5,29.91,North,-999,-999.0,-999.0,21,-99.99,,,-99.99,WSDL version 440,2013-11-07 22:01:00,
2013-11-07 16:06:00,52.1,13.3,29.91,North,-999,-999.0,-999.0,21,-99.99,,,-99.99,WSDL version 440,2013-11-07 22:06:00,
2013-11-07 16:11:00,51.9,13.2,29.91,North,-999,-999.0,-999.0,21,-99.99,,,-99.99,WSDL version 440,2013-11-07 22:11:00,
2013-11-07 16:16:00,51.6,13.0,29.91,North,-999,-999.0,-999.0,21,-99.99,,,-99.99,WSDL version 440,2013-11-07 22:16:00,
2013-11-07 16:21:00,51.4,14.6,29.91,North,-999,-999.0,-999.0,23,-99.99,,,-99.99,WSDL version 440,2013-11-07 22:21:00,
2013-11-07 16:26:00,51.2,15.7,29.91,North,-999,-999.0,-999.0,24,-99.99,,,-99.99,WSDL version 440,2013-11-07 22:26:00,
2013-11-07 16:31:00,51.0,15.5,29.94,North,-999,-999.0,-999.0,24,-99.99,,,-99.99,WSDL version 440,2013-11-07 22:31:00,
2013-11-07 16:36:00,50.8,15.3,29.94,North,-999,-999.0,-999.0,24,-99.99,,,-99.99,WSDL version 440,2013-11-07 22:36:00,
2013-11-07 16:41:00,50.5,15.0,29.94,North,-999,-999.0,-999.0,24,-99.99,,,-99.99,WSDL version 440,2013-11-07 22:41:00,
2013-11-07 16:46:00,50.2,15.5,29.91,North,-999,-999.0,-999.0,25,-99.99,,,-99.99,WSDL version 440,2013-11-07 22:46:00,
2013-11-07 16:51:00,50.0,16.4,29.91,North,-999,-999.0,-999.0,26,-99.99,,,-99.99,WSDL version 440,2013-11-07 22:51:00,
2013-11-07 16:56:00,49.7,16.2,29.91,North,-999,-999.0,-999.0,26,-99.99,,,-99.99,WSDL version 440,2013-11-07 22:56:00,
2013-11-07 17:01:00,49.3,15.9,29.94,North,-999,-999.0,-999.0,26,-99.99,,,-99.99,WSDL version 440,2013-11-07 23:01:00,
2013-11-07 17:06:00,49.0,15.8,29.94,North,-999,-999.0,-999.0,26,-99.99,,,-99.99,WSDL version 440,2013-11-07 23:06:00,
2013-11-07 17:11:00,48.8,16.3,29.94,North,-999,-999.0,-999.0,27,-99.99,,,-99.99,WSDL version 440,2013-11-07 23:11:00,
2013-11-07 17:16:00,48.6,16.1,29.94,North,-999,-999.0,-999.0,27,-99.99,,,-99.99,WSDL version 440,2013-11-07 23:16:00,
2013-11-07 17:21:00,48.3,15.9,29.94,North,-999,-999.0,-999.0,27,-99.99,,,-99.99,WSDL version 440,2013-11-07 23:21:00,
2013-11-07 17:26:00,48.0,15.6,29.94,North,-999,-999.0,-999.0,27,-99.99,,,-99.99,WSDL version 440,2013-11-07 23:26:00,
2013-11-07 17:31:00,47.8,15.6,29.94,North,-999,-999.0,-999.0,27,-99.99,,,-99.99,WSDL version 440,2013-11-07 23:31:00,
2013-11-07 17:36:00,47.5,15.2,29.94,North,-999,-999.0,-999.0,27,-99.99,,,-99.99,WSDL version 440,2013-11-07 23:36:00,
2013-11-07 17:41:00,47.3,15.2,29.94,North,-999,-999.0,-999.0,27,-99.99,,,-99.99,WSDL version 440,2013-11-07 23:41:00,
2013-11-07 17:46:00,47.2,15.7,29.94,North,-999,-999.0,-999.0,28,-99.99,,,-99.99,WSDL version 440,2013-11-07 23:46:00,
2013-11-07 17:51:00,46.9,15.5,29.94,North,-999,-999.0,-999.0,28,-99.99,,,-99.99,WSDL version 440,2013-11-07 23:51:00,
2013-11-07 17:56:00,46.8,15.4,29.94,North,-999,-999.0,-999.0,28,-99.99,,,-99.99,WSDL version 440,2013-11-07 23:56:00,
2013-11-07 18:01:00,46.6,15.2,29.94,North,-999,-999.0,-999.0,28,-99.99,,,-99.99,WSDL version 440,2013-11-08 00:01:00,
2013-11-07 18:06:00,46.4,15.0,29.94,North,-999,-999.0,-999.0,28,-99.99,,,-99.99,WSDL version 440,2013-11-08 00:06:00,
2013-11-07 18:11:00,46.2,15.7,29.94,North,-999,-999.0,-999.0,29,-99.99,,,-99.99,WSDL version 440,2013-11-08 00:11:00,
2013-11-07 18:16:00,46.0,16.3,29.97,North,-999,-999.0,-999.0,30,-99.99,,,-99.99,WSDL version 440,2013-11-08 00:16:00,
2013-11-07 18:21:00,45.9,16.2,29.97,North,-999,-999.0,-999.0,30,-99.99,,,-99.99,WSDL version 440,2013-11-08 00:21:00,
2013-11-07 18:26:00,45.8,16.1,29.97,North,-999,-999.0,-999.0,30,-99.99,,,-99.99,WSDL version 440,2013-11-08 00:26:00,
2013-11-07 18:31:00,45.6,15.9,29.97,North,-999,-999.0,-999.0,30,-99.99,,,-99.99,WSDL version 440,2013-11-08 00:31:00,
2013-11-07 18:36:00,45.5,15.8,29.97,North,-999,-999.0,-999.0,30,-99.99,,,-99.99,WSDL version 440,2013-11-08 00:36:00,
2013-11-07 18:41:00,45.3,15.7,29.97,North,-999,-999.0,-999.0,30,-99.99,,,-99.99,WSDL version 440,2013-11-08 00:41:00,
2013-11-07 18:46:00,45.3,15.7,29.97,North,-999,-999.0,-999.0,30,-99.99,,,-99.99,WSDL version 440,2013-11-08 00:46:00,
2013-11-07 18:51:00,45.1,16.2,29.97,North,-999,-999.0,-999.0,31,-99.99,,,-99.99,WSDL version 440,2013-11-08 00:51:00,
2013-11-07 18:56:00,45.1,15.6,29.97,North,-999,-999.0,-999.0,30,-99.99,,,-99.99,WSDL version 440,2013-11-08 00:56:00,
2013-11-07 19:01:00,44.8,15.3,29.97,North,-999,-999.0,-999.0,30,-99.99,,,-99.99,WSDL version 440,2013-11-08 01:01:00,
2013-11-07 19:06:00,44.6,15.9,29.97,North,-999,-999.0,-999.0,31,-99.99,,,-99.99,WSDL version 440,2013-11-08 01:06:00,
2013-11-07 19:11:00,44.5,15.7,29.97,North,-999,-999.0,-999.0,31,-99.99,,,-99.99,WSDL version 440,2013-11-08 01:11:00,
2013-11-07 19:16:00,44.3,16.3,29.97,North,-999,-999.0,-999.0,32,-99.99,,,-99.99,WSDL version 440,2013-11-08 01:16:00,
2013-11-07 19:21:00,44.2,16.2,29.97,North,-999,-999.0,-999.0,32,-99.99,,,-99.99,WSDL version 440,2013-11-08 01:21:00,
2013-11-07 19:26:00,44.2,16.6,29.97,North,-999,-999.0,-999.0,33,-99.99,,,-99.99,WSDL version 440,2013-11-08 01:26:00,
2013-11-07 19:31:00,44.1,16.8,29.97,North,-999,-999.0,-999.0,33,-99.99,,,-99.99,WSDL version 440,2013-11-08 01:31:00,
2013-11-07 19:36:00,44.1,16.8,29.97,North,-999,-999.0,-999.0,33,-99.99,,,-99.99,WSDL version 440,2013-11-08 01:36:00,
2013-11-07 19:41:00,43.9,17.3,29.97,North,-999,-999.0,-999.0,34,-99.99,,,-99.99,WSDL version 440,2013-11-08 01:41:00,
2013-11-07 19:46:00,43.7,17.4,29.97,North,-999,-999.0,-999.0,34,-99.99,,,-99.99,WSDL version 440,2013-11-08 01:46:00,
2013-11-07 19:51:00,43.7,17.6,29.97,North,-999,-999.0,-999.0,35,-99.99,,,-99.99,WSDL version 440,2013-11-08 01:51:00,
2013-11-07 19:56:00,43.6,17.0,29.97,North,-999,-999.0,-999.0,34,-99.99,,,-99.99,WSDL version 440,2013-11-08 01:56:00,
2013-11-07 20:01:00,43.5,17.6,30.00,North,-999,-999.0,-999.0,35,-99.99,,,-99.99,WSDL version 440,2013-11-08 02:01:00,
2013-11-07 20:06:00,43.4,18.2,30.00,North,-999,-999.0,-999.0,36,-99.99,,,-99.99,WSDL version 440,2013-11-08 02:06:00,
2013-11-07 20:11:00,43.3,18.0,30.00,North,-999,-999.0,-999.0,36,-99.99,,,-99.99,WSDL version 440,2013-11-08 02:11:00,
2013-11-07 20:16:00,43.3,18.7,29.97,North,-999,-999.0,-999.0,37,-99.99,,,-99.99,WSDL version 440,2013-11-08 02:16:00,
2013-11-07 20:21:00,43.2,19.3,29.97,North,-999,-999.0,-999.0,38,-99.99,,,-99.99,WSDL version 440,2013-11-08 02:21:00,
2013-11-07 20:26:00,43.0,19.0,29.97,North,-999,-999.0,-999.0,38,-99.99,,,-99.99,WSDL version 440,2013-11-08 02:26:00,
2013-11-07 20:31:00,43.0,19.1,29.97,North,-999,-999.0,-999.0,38,-99.99,,,-99.99,WSDL version 440,2013-11-08 02:31:00,
2013-11-07 20:36:00,42.9,19.0,29.97,North,-999,-999.0,-999.0,38,-99.99,,,-99.99,WSDL version 440,2013-11-08 02:36:00,
2013-11-07 20:41:00,42.8,19.0,29.97,North,-999,-999.0,-999.0,38,-99.99,,,-99.99,WSDL version 440,2013-11-08 02:41:00,
2013-11-07 20:46:00,42.7,18.9,29.97,North,-999,-999.0,-999.0,38,-99.99,,,-99.99,WSDL version 440,2013-11-08 02:46:00,
2013-11-07 20:51:00,42.6,18.8,29.97,North,-999,-999.0,-999.0,38,-99.99,,,-99.99,WSDL version 440,2013-11-08 02:51:00,
2013-11-07 20:56:00,42.5,18.9,29.97,North,-999,-999.0,-999.0,38,-99.99,,,-99.99,WSDL version 440,2013-11-08 02:56:00,
2013-11-07 21:01:00,42.4,19.1,29.97,North,-999,-999.0,-999.0,39,-99.99,,,-99.99,WSDL version 440,2013-11-08 03:01:00,
2013-11-07 21:06:00,42.4,19.2,29.97,North,-999,-999.0,-999.0,39,-99.99,,,-99.99,WSDL version 440,2013-11-08 03:06:00,
2013-11-07 21:11:00,42.4,19.2,29.97,North,-999,-999.0,-999.0,39,-99.99,,,-99.99,WSDL version 440,2013-11-08 03:11:00,
2013-11-07 21:16:00,42.3,19.1,29.97,North,-999,-999.0,-999.0,39,-99.99,,,-99.99,WSDL version 440,2013-11-08 03:16:00,
2013-11-07 21:21:00,42.2,19.0,29.97,North,-999,-999.0,-999.0,39,-99.99,,,-99.99,WSDL version 440,2013-11-08 03:21:00,
2013-11-07 21:26:00,42.1,18.9,29.97,North,-999,-999.0,-999.0,39,-99.99,,,-99.99,WSDL version 440,2013-11-08 03:26:00,
2013-11-07 21:31:00,42.0,18.8,29.97,North,-999,-999.0,-999.0,39,-99.99,,,-99.99,WSDL version 440,2013-11-08 03:31:00,
2013-11-07 21:36:00,41.9,18.8,29.97,North,-999,-999.0,-999.0,39,-99.99,,,-99.99,WSDL version 440,2013-11-08 03:36:00,
2013-11-07 21:46:00,41.7,18.6,29.97,North,-999,-999.0,-999.0,39,-99.99,,,-99.99,WSDL version 440,2013-11-08 03:46:00,
2013-11-07 21:51:00,41.6,18.6,29.97,North,-999,-999.0,-999.0,39,-99.99,,,-99.99,WSDL version 440,2013-11-08 03:51:00,
2013-11-07 21:56:00,41.5,18.4,29.97,North,-999,-999.0,-999.0,39,-99.99,,,-99.99,WSDL version 440,2013-11-08 03:56:00,
2013-11-07 22:01:00,41.5,18.4,29.97,North,-999,-999.0,-999.0,39,-99.99,,,-99.99,WSDL version 440,2013-11-08 04:01:00,
2013-11-07 22:06:00,41.4,18.9,29.97,North,-999,-999.0,-999.0,40,-99.99,,,-99.99,WSDL version 440,2013-11-08 04:06:00,
2013-11-07 22:11:00,41.3,18.8,29.97,North,-999,-999.0,-999.0,40,-99.99,,,-99.99,WSDL version 440,2013-11-08 04:11:00,
2013-11-07 22:16:00,41.2,18.7,29.97,North,-999,-999.0,-999.0,40,-99.99,,,-99.99,WSDL version 440,2013-11-08 04:16:00,
2013-11-07 22:21:00,41.2,18.7,29.97,North,-999,-999.0,-999.0,40,-99.99,,,-99.99,WSDL version 440,2013-11-08 04:21:00,
2013-11-07 22:26:00,41.0,18.4,29.97,North,-999,-999.0,-999.0,40,-99.99,,,-99.99,WSDL version 440,2013-11-08 04:26:00,
2013-11-07 22:31:00,40.9,18.4,29.97,North,-999,-999.0,-999.0,40,-99.99,,,-99.99,WSDL version 440,2013-11-08 04:31:00,
2013-11-07 22:36:00,40.8,18.4,29.97,North,-999,-999.0,-999.0,40,-99.99,,,-99.99,WSDL version 440,2013-11-08 04:36:00,
2013-11-07 22:41:00,40.7,18.3,29.97,North,-999,-999.0,-999.0,40,-99.99,,,-99.99,WSDL version 440,2013-11-08 04:41:00,
2013-11-07 22:46:00,40.6,18.8,29.97,North,-999,-999.0,-999.0,41,-99.99,,,-99.99,WSDL version 440,2013-11-08 04:46:00,
2013-11-07 22:51:00,40.6,18.7,29.97,North,-999,-999.0,-999.0,41,-99.99,,,-99.99,WSDL version 440,2013-11-08 04:51:00,
2013-11-07 22:56:00,40.6,18.7,29.97,North,-999,-999.0,-999.0,41,-99.99,,,-99.99,WSDL version 440,2013-11-08 04:56:00,
2013-11-07 23:01:00,40.5,18.0,29.94,North,-999,-999.0,-999.0,40,-99.99,,,-99.99,WSDL version 440,2013-11-08 05:01:00,
2013-11-07 23:06:00,40.5,18.2,29.94,North,-999,-999.0,-999.0,40,-99.99,,,-99.99,WSDL version 440,2013-11-08 05:06:00,
2013-11-07 23:11:00,40.4,18.5,29.94,North,-999,-999.0,-999.0,41,-99.99,,,-99.99,WSDL version 440,2013-11-08 05:11:00,
2013-11-07 23:16:00,40.2,18.0,29.94,North,-999,-999.0,-999.0,40,-99.99,,,-99.99,WSDL version 440,2013-11-08 05:16:00,
2013-11-07 23:21:00,40.1,18.3,29.94,North,-999,-999.0,-999.0,41,-99.99,,,-99.99,WSDL version 440,2013-11-08 05:21:00,
2013-11-07 23:26:00,40.2,18.3,29.94,North,-999,-999.0,-999.0,41,-99.99,,,-99.99,WSDL version 440,2013-11-08 05:26:00,
2013-11-07 23:31:00,40.1,18.3,29.94,North,-999,-999.0,-999.0,41,-99.99,,,-99.99,WSDL version 440,2013-11-08 05:31:00,
2013-11-07 23:36:00,40.1,18.3,29.94,North,-999,-999.0,-999.0,41,-99.99,,,-99.99,WSDL version 440,2013-11-08 05:36:00,
2013-11-07 23:41:00,39.9,18.1,29.94,North,-999,-999.0,-999.0,41,-99.99,,,-99.99,WSDL version 440,2013-11-08 05:41:00,
2013-11-07 23:46:00,39.9,18.1,29.94,North,-999,-999.0,-999.0,41,-99.99,,,-99.99,WSDL version 440,2013-11-08 05:46:00,
2013-11-07 23:51:00,39.9,18.2,29.94,North,-999,-999.0,-999.0,41,-99.99,,,-99.99,WSDL version 440,2013-11-08 05:51:00,
2013-11-07 23:56:00,39.8,18.5,29.94,North,-999,-999.0,-999.0,42,-99.99,,,-99.99,WSDL version 440,2013-11-08 05:56:00,